Wind_Speed
65 65 60 51 53 49 47 52 50 48 45 45 46 44 37 33 35 33 29 26 29 35 36 39 40 37 28 29 30 32 25 24 25 21 20 23 26 29 32 33 36 37 38 39
71 63 49 53 51 55 55 55 52 49 48 44 40 46 41 35 33 31 30 30 26 31 37 36 33 35 26 29 27 27 23 25 23 21 23 27 29 32 32 33 34 35 38 39
71 55 61 60 58 59 53 51 51 46 48 41 43 49 42 30 27 27 34 30 29 34 32 28 27 31 27 28 25 24 21 25 22 21 25 28 29 30 32 32 33 34 32 32
68 61 64 62 65 62 56 53 51 49 50 37 44 53 42 27 22 28 29 27 32 27 27 22 29 28 31 20 21 22 21 22 20 24 27 28 28 30 30 31 31 30 31 30
62 62 67 71 64 63 58 54 54 53 52 52 50 44 23 28 24 22 27 33 29 27 24 27 29 29 23 19 22 21 20 18 20 24 27 27 28 26 28 30 28 29 28 27
61 63 67 64 64 66 64 60 55 52 55 58 48 45 21 26 22 22 27 27 25 24 27 31 30 27 19 20 18 18 17 17 22 24 25 26 24 25 27 26 26 26 27 23
57 57 63 61 66 66 66 63 60 59 58 54 45 48 27 20 19 23 28 26 24 23 27 25 26 15 17 18 13 16 15 19 22 21 23 22 24 24 26 22 23 25 24 19
46 54 57 59 62 63 67 65 66 65 61 53 51 45 35 23 27 28 16 16 21 20 19 16 8 16 18 12 15 15 16 20 20 20 20 22 21 24 22 21 22 22 20 15
40 48 47 57 62 61 59 65 59 61 60 58 55 46 38 30 24 25 20 23 21 17 12 11 14 18 14 14 16 14 16 18 17 19 20 20 22 24 20 20 19 19 17 14
32 41 42 43 57 65 62 54 60 61 60 61 54 47 39 16 13 23 18 19 18 15 9 13 15 17 14 17 14 13 16 15 16 17 18 19 23 20 17 18 19 19 13 12
33 37 32 45 52 57 61 62 60 63 60 55 51 49 29 24 22 22 12 17 15 7 14 16 16 18 16 14 10 13 14 12 16 16 17 19 22 19 18 17 18 16 13 18
24 25 33 44 47 52 64 64 59 57 61 51 48 40 25 19 19 21 16 15 14 10 12 16 19 20 18 10 10 12 9 12 15 15 16 18 18 20 17 13 14 13 12 12
16 24 25 41 39 40 52 63 53 48 54 57 52 37 31 20 20 21 23 29 21 14 15 14 16 22 14 9 11 8 8 13 13 14 16 15 14 13 13 11 13 9 10 11
12 18 26 35 37 47 49 60 62 57 58 57 54 45 33 22 23 17 26 26 19 16 17 15 17 16 11 10 7 5 8 12 11 13 13 13 10 13 14 13 10 10 10 10
12 13 22 30 34 40 49 62 68 61 60 61 49 33 25 20 24 23 24 24 23 23 16 17 17 14 10 6 6 5 8 10 8 11 11 8 10 11 11 12 12 11 9 11
10 7 15 27 32 38 49 61 61 64 62 61 55 40 27 22 30 27 27 26 22 19 22 19 17 13 7 6 6 5 8 7 7 8 5 6 8 9 10 12 12 11 7 9
9 3 5 18 31 32 45 56 51 53 55 59 44 41 35 35 31 31 30 31 27 22 23 19 17 12 7 6 7 6 7 6 6 6 5 6 6 8 9 12 14 10 8 3
5 7 4 4 15 31 27 51 51 46 48 50 44 42 34 37 36 33 36 38 29 28 26 22 17 10 7 6 7 5 6 5 4 6 5 5 6 7 9 13 13 9 7 5
5 3 4 7 13 26 31 38 50 51 58 52 41 44 30 35 39 40 44 37 38 32 29 21 17 11 7 7 8 6 5 5 3 3 3 5 6 8 10 12 12 10 8 7
4 3 3 15 17 14 28 44 47 54 49 39 35 47 35 38 42 47 41 40 34 33 30 24 19 12 7 7 8 6 4 4 3 2 3 5 7 8 9 12 13 9 9 10
5 10 5 18 7 19 36 53 38 45 46 32 40 44 47 39 47 43 41 36 35 32 26 22 18 11 6 6 8 7 3 4 3 2 2 4 6 9 9 12 14 14 12 8
8 10 6 6 20 14 12 49 36 42 59 47 47 51 48 44 37 43 41 38 31 27 23 21 18 10 8 6 9 9 3 2 4 3 1 2 4 8 9 12 16 18 17 18
7 12 9 14 3 19 18 32 45 51 27 54 51 52 46 45 41 44 43 39 31 27 22 20 18 14 9 7 10 12 5 1 3 3 2 1 4 7 10 11 13 16 17 17
5 5 11 2 10 12 8 25 37 28 40 43 53 41 38 36 44 45 44 39 33 28 26 25 21 14 10 8 11 13 9 4 2 4 4 2 4 6 10 11 12 14 15 16
6 5 9 9 18 17 16 18 23 24 29 35 40 43 36 40 38 43 39 38 35 31 32 26 22 15 11 10 13 15 13 8 4 4 5 5 5 6 8 12 14 16 16 17
12 12 11 9 14 18 20 23 3 23 32 36 30 31 36 41 41 44 43 39 37 32 31 26 21 16 14 12 14 13 15 12 8 5 5 6 6 7 8 9 10 10 11 12
Wind_Direction
241 240 241 248 251 256 255 253 254 257 258 262 265 270 267 270 277 277 289 287 282 282 286 287 291 287 292 284 286 291 282 286 287 296 302 305 309 307 304 305 304 307 305 305
241 240 241 244 245 245 244 247 248 252 257 261 265 266 262 258 265 277 280 282 290 279 275 283 294 285 286 278 283 283 274 284 288 302 305 304 305 303 306 304 304 307 306 310
241 239 239 237 239 242 243 246 250 253 258 254 258 260 262 262 273 280 281 292 285 280 286 301 286 281 281 277 273 264 271 282 289 306 305 306 305 303 305 304 304 306 308 308
237 235 237 238 235 239 239 242 246 249 253 250 252 262 256 260 266 268 280 289 279 280 286 294 281 293 266 261 264 257 270 278 293 302 305 305 304 303 302 304 312 314 314 310
235 233 233 233 234 235 236 238 241 244 246 248 251 254 259 260 261 275 279 274 286 281 287 282 288 274 267 255 248 257 270 276 294 302 305 305 303 303 308 314 314 316 317 317
230 229 230 231 232 232 234 233 235 239 243 245 244 253 258 262 274 271 273 285 298 291 285 282 276 270 256 237 239 259 264 286 297 303 306 307 303 309 312 316 321 323 323 321
227 224 228 228 228 228 229 230 232 231 233 245 245 250 258 260 270 274 271 291 296 276 271 276 270 255 233 229 249 257 270 287 298 303 308 302 306 311 316 315 321 319 324 320
227 227 224 227 226 229 226 225 229 234 239 246 241 246 254 268 265 268 290 310 288 274 273 291 242 228 221 237 255 264 275 290 295 309 301 301 308 312 315 320 323 316 321 319
243 228 225 224 223 222 227 224 228 233 234 237 240 245 251 255 264 272 281 279 288 269 269 241 221 217 222 247 256 268 281 289 299 306 294 309 312 316 314 326 317 318 320 315
245 232 220 221 222 223 217 220 218 221 226 231 231 235 240 255 247 266 293 288 283 272 238 228 224 213 233 251 255 272 286 287 306 295 300 308 314 317 320 317 303 314 316 308
252 248 203 211 215 218 216 216 218 217 222 225 230 230 227 238 265 267 268 289 288 237 219 231 227 213 235 248 260 277 280 293 302 294 305 310 317 323 316 315 308 309 318 329
276 267 228 217 208 216 213 210 215 211 214 218 222 220 203 200 253 263 251 273 268 213 214 230 220 219 242 241 263 275 277 299 298 297 310 314 324 322 320 309 308 313 326 337
262 257 253 210 206 206 209 204 200 206 209 213 219 207 197 197 236 255 263 263 259 224 236 235 221 228 227 242 265 265 284 296 297 302 316 318 331 339 332 317 313 328 326 326
276 262 239 205 204 202 203 200 189 195 205 206 215 214 204 219 235 240 247 245 238 232 238 228 220 213 219 245 261 249 285 298 296 311 316 323 330 336 334 326 327 334 327 322
266 264 241 219 196 206 200 189 189 191 197 202 204 195 193 221 223 221 227 248 214 227 228 220 212 208 221 246 244 244 290 293 297 316 311 349 343 348 340 341 334 336 333 333
266 220 244 237 207 206 200 192 189 190 194 197 197 171 196 206 228 224 230 224 215 230 219 219 214 214 226 243 229 244 287 289 299 314 317 1 346 360 352 352 347 342 335 342
216 212 258 251 241 224 199 194 193 190 192 192 170 185 199 208 208 224 228 226 221 222 216 216 216 218 231 235 225 248 294 282 293 310 341 8 350 356 354 1 353 350 352 27
209 246 268 235 243 221 180 191 195 191 188 186 183 196 193 206 211 221 222 213 204 210 211 213 216 211 223 218 220 247 291 272 283 307 347 16 5 7 5 10 3 8 29 92
104 165 116 211 201 199 163 156 177 182 181 191 202 191 205 194 206 215 219 205 204 202 205 210 214 205 209 210 213 233 285 257 271 304 18 19 11 17 16 18 21 29 76 87
295 84 27 186 151 181 168 171 176 180 185 192 198 193 178 188 201 204 201 201 201 206 207 202 213 206 202 205 210 224 276 245 247 285 55 17 18 23 30 29 30 47 87 86
60 71 358 215 156 131 158 172 172 184 192 181 196 190 183 175 186 186 189 200 203 203 207 209 212 210 196 197 203 215 262 233 226 233 41 6 17 37 45 45 54 69 86 73
61 122 68 234 240 177 97 184 186 201 178 194 200 182 177 185 178 186 197 201 205 204 204 214 221 222 199 203 202 203 209 236 220 208 91 15 42 57 66 66 68 78 80 75
105 161 94 80 266 220 146 149 177 195 154 189 188 191 190 190 184 190 195 201 202 204 206 211 218 211 193 196 205 200 188 217 211 197 201 72 83 77 73 74 76 78 82 78
174 193 256 220 134 231 138 151 177 168 203 193 197 204 193 197 197 196 201 209 208 206 203 200 203 204 201 200 207 201 192 192 183 185 185 180 123 94 86 85 87 90 89 85
293 271 226 268 269 269 251 240 177 158 186 188 200 203 196 193 201 207 206 202 211 212 208 195 180 190 199 199 203 200 198 192 177 181 170 190 157 128 107 104 96 90 86 86
340 281 260 234 248 260 257 256 112 163 168 204 192 206 202 209 213 211 212 213 209 208 206 206 201 196 198 191 194 196 198 194 180 175 174 175 181 166 145 127 112 95 84 79
Height
5708 5710 5723 5740 5744 5749 5755 5754 5759 5766 5774 5777 5776 5776 5782 5787 5785 5787 5791 5790 5790 5790 5791 5792 5791 5788 5791 5788 5788 5787 5787 5786 5784 5781 5779 5776 5774 5772 5770 5766 5761 5757 5752 5748
5689 5705 5729 5728 5735 5733 5738 5741 5748 5756 5762 5768 5771 5765 5772 5776 5779 5783 5782 5782 5785 5784 5784 5784 5783 5780 5783 5781 5781 5780 5780 5780 5779 5776 5774 5772 5770 5766 5763 5760 5756 5752 5746 5741
5675 5708 5707 5711 5716 5717 5729 5734 5741 5747 5753 5759 5759 5752 5760 5769 5773 5775 5772 5776 5775 5774 5776 5776 5775 5773 5776 5775 5775 5774 5774 5774 5773 5771 5769 5767 5763 5761 5757 5754 5751 5747 5741 5735
5666 5687 5689 5698 5701 5709 5717 5728 5734 5738 5742 5747 5751 5741 5752 5764 5767 5766 5768 5769 5765 5768 5770 5771 5766 5768 5767 5769 5769 5770 5770 5769 5768 5766 5764 5761 5758 5755 5752 5749 5745 5740 5735 5729
5664 5673 5671 5672 5692 5698 5710 5717 5720 5726 5732 5733 5735 5737 5751 5756 5758 5762 5762 5758 5761 5763 5764 5762 5762 5761 5764 5763 5764 5765 5765 5764 5764 5762 5759 5755 5751 5749 5746 5743 5738 5735 5730 5726
5644 5645 5645 5670 5676 5684 5694 5703 5707 5714 5718 5715 5732 5734 5744 5749 5753 5753 5751 5752 5755 5755 5755 5753 5752 5754 5757 5759 5760 5760 5760 5760 5759 5758 5753 5750 5746 5744 5741 5737 5733 5730 5726 5723
5618 5624 5638 5652 5659 5669 5676 5687 5693 5698 5701 5711 5728 5727 5738 5745 5747 5744 5744 5748 5749 5748 5746 5746 5747 5750 5752 5754 5755 5755 5756 5755 5755 5752 5748 5746 5742 5739 5737 5734 5730 5727 5724 5720
5601 5613 5628 5636 5645 5653 5663 5670 5679 5684 5696 5709 5715 5717 5727 5737 5739 5737 5740 5741 5741 5741 5741 5742 5744 5746 5748 5750 5750 5751 5752 5752 5750 5747 5744 5743 5739 5736 5732 5730 5727 5724 5721 5718
5591 5602 5611 5618 5631 5639 5654 5656 5681 5676 5686 5694 5704 5713 5720 5727 5731 5731 5734 5735 5736 5736 5737 5738 5740 5742 5745 5747 5747 5748 5748 5747 5745 5743 5741 5738 5735 5732 5728 5726 5725 5722 5719 5716
5584 5590 5598 5610 5616 5624 5632 5657 5658 5663 5672 5680 5695 5705 5712 5721 5722 5725 5728 5727 5727 5731 5734 5734 5736 5739 5742 5743 5744 5745 5744 5743 5741 5739 5737 5734 5731 5729 5726 5725 5722 5720 5717 5715
5580 5582 5595 5594 5599 5613 5627 5636 5645 5657 5664 5672 5687 5694 5710 5714 5716 5719 5723 5723 5723 5728 5729 5731 5733 5737 5739 5740 5741 5742 5740 5739 5737 5735 5733 5731 5728 5724 5723 5721 5719 5718 5716 5712
5573 5573 5578 5582 5593 5602 5609 5623 5638 5642 5658 5666 5679 5692 5702 5707 5711 5713 5718 5721 5722 5727 5727 5728 5731 5734 5736 5737 5738 5738 5737 5735 5734 5732 5730 5728 5725 5722 5719 5719 5717 5716 5714 5711
5566 5567 5568 5577 5588 5597 5598 5612 5629 5639 5651 5657 5671 5690 5693 5700 5708 5711 5713 5715 5720 5724 5725 5727 5728 5731 5733 5734 5734 5734 5733 5732 5730 5729 5727 5725 5723 5721 5719 5717 5716 5715 5712 5709
5561 5562 5563 5568 5575 5579 5588 5601 5611 5623 5634 5651 5661 5679 5690 5694 5699 5706 5708 5711 5715 5720 5722 5723 5725 5728 5730 5731 5730 5730 5730 5729 5728 5727 5725 5724 5722 5720 5717 5715 5714 5713 5709 5707
5558 5558 5559 5564 5569 5574 5583 5590 5601 5610 5626 5635 5660 5675 5683 5689 5694 5698 5702 5705 5711 5716 5719 5721 5723 5725 5728 5728 5728 5728 5727 5727 5726 5725 5724 5722 5720 5718 5716 5714 5712 5710 5707 5705
5555 5557 5558 5561 5566 5571 5580 5589 5596 5606 5620 5632 5650 5668 5674 5683 5685 5694 5698 5702 5707 5712 5715 5717 5721 5723 5725 5725 5725 5726 5726 5726 5725 5724 5723 5721 5720 5717 5716 5714 5711 5708 5706 5703
5553 5556 5558 5559 5563 5568 5577 5593 5600 5613 5622 5635 5650 5660 5668 5675 5682 5687 5692 5698 5704 5708 5712 5715 5718 5720 5723 5723 5724 5725 5725 5725 5724 5723 5722 5721 5719 5717 5715 5713 5710 5707 5704 5703
5553 5556 5556 5559 5561 5567 5576 5587 5600 5611 5624 5632 5635 5652 5664 5668 5676 5681 5684 5690 5698 5702 5708 5711 5715 5718 5720 5721 5722 5724 5723 5724 5724 5723 5721 5721 5719 5718 5716 5713 5709 5706 5704 5704
5554 5554 5555 5559 5562 5570 5576 5582 5595 5603 5616 5620 5628 5644 5651 5656 5668 5675 5679 5687 5692 5698 5704 5708 5712 5715 5717 5719 5721 5723 5723 5723 5723 5723 5721 5721 5720 5719 5716 5713 5710 5707 5705 5706
5555 5554 5555 5558 5563 5571 5580 5586 5594 5602 5612 5617 5628 5635 5641 5652 5660 5668 5675 5683 5689 5695 5700 5704 5709 5712 5716 5718 5720 5722 5722 5722 5723 5723 5723 5722 5721 5719 5717 5715 5711 5709 5708 5708
5556 5556 5558 5558 5558 5563 5576 5588 5590 5609 5616 5612 5619 5628 5636 5645 5656 5665 5673 5680 5687 5692 5698 5704 5707 5711 5714 5716 5719 5721 5722 5722 5723 5723 5723 5723 5722 5720 5719 5717 5714 5712 5711 5711
5558 5561 5560 5565 5567 5571 5573 5587 5595 5591 5600 5610 5616 5621 5631 5642 5651 5661 5671 5678 5685 5689 5696 5702 5705 5710 5712 5715 5717 5720 5721 5722 5722 5723 5724 5724 5723 5722 5721 5720 5719 5716 5716 5715
5561 5561 5562 5564 5564 5568 5573 5575 5589 5589 5585 5599 5613 5620 5629 5638 5648 5657 5665 5675 5682 5687 5693 5699 5704 5707 5709 5713 5716 5719 5720 5721 5722 5723 5724 5725 5725 5724 5723 5723 5722 5721 5720 5720
5563 5564 5561 5563 5567 5567 5564 5567 5574 5582 5593 5601 5611 5617 5626 5636 5645 5654 5662 5671 5677 5684 5688 5694 5699 5705 5708 5711 5714 5717 5719 5721 5721 5723 5724 5726 5726 5726 5726 5726 5726 5725 5725 5724
5565 5566 5567 5567 5564 5568 5571 5571 5579 5579 5592 5598 5606 5616 5623 5633 5644 5651 5659 5667 5675 5680 5684 5688 5692 5702 5706 5709 5712 5715 5718 5720 5721 5723 5725 5726 5728 5729 5729 5729 5730 5730 5730 5730
5563 5564 5566 5569 5567 5567 5568 5567 5568 5581 5588 5599 5607 5614 5622 5631 5639 5647 5655 5662 5670 5676 5684 5689 5695 5699 5703 5706 5710 5713 5716 5718 5720 5722 5724 5727 5728 5730 5731 5732 5733 5733 5734 5734